Location: ?kun?ru
(16.3916°N, 80.8194°E)
Time: 01:38:38
(UTC+00:00)

Cosmos 1634 Rocket - Pass Details

Date: 19 May 2025
Orbit: 959 x 991 km, 82.9° (Epoch: 24 June)

Event Time Altitude Azimuth Distance (km) Brightness Sun altitude
Rises 21:58:15 0° 0° (N) 3,696 7.5 -27.9°
Reaches altitude 10° 22:00:48 10° 4° (N) 2,744 6.8 -27.4°
Maximum altitude 22:07:03 66° 85° (E) 1,066 4.3 -26.1°
Enters shadow 22:13:06 11° 167° (SSE) 2,668 6.1 -24.9°
